Location: Downe
(51.3167°N, 0.0500°E)
Time: 18:07:50
(UTC+00:00)

Cosmos 2360 Rocket - Pass Details

Date: 17 November 2019
Orbit: 832 x 847 km, 71.0° (Epoch: 14 December)

Event Time Altitude Azimuth Distance (km) Brightness Sun altitude
Exits shadow 06:31:10 - 322° (NW) 2,947 4.5 -7.7°
Reaches altitude 10° 06:32:30 10° 317° (NW) 2,480 4.1 -7.5°
Maximum altitude 06:37:37 36° 253° (WSW) 1,329 2.9 -6.8°
Drops below altitude 10° 06:42:42 10° 189° (S) 2,464 4.8 -6.0°
Sets 06:45:19 0° 181° (S) 3,393 5.7 -5.7°
